Regional Weather Roundup
Issued by NWS

Home | Current Version | Previous Version | Graphics & Text | Print | Product List | Glossary On
Versions: 1 2 3 4 5 6 7 8 9 10 11 12 13 14 15 16 17 18 19 20 21 22 23 24 25 26 27 28 29 30 31 32 33 34 35 36 37 38 39 40 41 42 43 44 45 46 47 48 49 50
000
ASUS43 KOAX 051910
RWRNE

WEATHER ROUNDUP FOR NEBRASKA
NATIONAL WEATHER SERVICE OMAHA NE
200 PM CDT THU MAY 05 2016

NOTES: SATELLITE DATA IS BEING USED TO AUGMENT CLOUD COVER ABOVE
       12000 FEET.
       "FAIR" INDICATES FEW OR NO CLOUDS BELOW 12,000 FEET WITH NO
       SIGNIFICANT WEATHER AND/OR OBSTRUCTIONS TO VISIBILITY.

  * THESE STATIONS DO NOT REPORT WEATHER SUCH AS RAIN...SNOW OR FOG.

NEZ001>004-019>022-054>056-052000-
NEBRASKA PANHANDLE

CITY           SKY/WX    TMP DP  RH WIND       PRES   REMARKS
SCOTTSBLUFF    SUNNY     79  38  22 CALM      30.00F
ALLIANCE       SUNNY     80  40  23 S14       29.99F
CHADRON        SUNNY     82  42  24 W6        29.94F
KIMBALL        CLOUDY    78  37  23 SW8       30.07F
SIDNEY         CLOUDY    81  40  23 S20G25    30.06F
$$

NEZ057>060-069>072-079>082-052000-
SOUTHWEST NEBRASKA

CITY           SKY/WX    TMP DP  RH WIND       PRES   REMARKS
NORTH PLATTE   SUNNY     79  48  33 S10G20    30.03F
IMPERIAL       CLOUDY    79  42  26 S15       30.04F
MCCOOK         SUNNY     78  50  37 S13       30.04F
OGALLALA       CLOUDY    78  43  28 S16       30.03F
$$

NEZ005>010-023>029-035>040-094-052000-
NORTH CENTRAL NEBRASKA

CITY           SKY/WX    TMP DP  RH WIND       PRES   REMARKS
VALENTINE      SUNNY     83  41  22 S15       29.97F
AINSWORTH      SUNNY     81  44  27 S9        30.00F
BROKEN BOW     SUNNY     78  49  35 S12       30.04F
O`NEILL        SUNNY     79  44  28 S9        30.03F
ORD            SUNNY     76  46  34 S12       30.03F
THEDFORD       SUNNY     82  44  26 SW12G21   30.02F
$$

NEZ041-046>049-061>064-073>077-083>087-052000-
SOUTH CENTRAL NEBRASKA

CITY           SKY/WX    TMP DP  RH WIND       PRES   REMARKS
GRAND ISLAND   SUNNY     77  40  26 S3        30.06F
AURORA         SUNNY     77  37  24 W3        30.06F
HASTINGS       SUNNY     76  39  26 S7        30.06F
HEBRON         SUNNY     74  34  22 CALM      30.07F
HOLDREGE       SUNNY     76  42  30 SW12      30.07F
KEARNEY *      SUNNY     75  43  31 S13       30.07F
YORK           SUNNY     75  36  23 CALM      30.07F
$$

NEZ011>018-030>034-042>045-052000-
NORTHEAST NEBRASKA

CITY           SKY/WX    TMP DP  RH WIND       PRES   REMARKS
NORFOLK        SUNNY     77  39  25 VRB7      30.03F
ALBION         SUNNY     76  39  26 W7        30.04F
BLAIR          SUNNY     73  36  26 SW7       30.06F
COLUMBUS *     SUNNY     75  39  27 SE7       30.06F
FREMONT        SUNNY     74  40  28 CALM      30.06F
TEKAMAH        SUNNY     74  40  29 S7        30.05F
WAYNE          SUNNY     76  40  28 S3        30.04F
$$

NEZ050>053-065>068-078-088>093-052000-
SOUTHEAST NEBRASKA

CITY           SKY/WX    TMP DP  RH WIND       PRES   REMARKS
LINCOLN        SUNNY     75  38  26 VRB5      30.07F
OMAHA EPPLEY   MOSUNNY   73  38  27 VRB5      30.06F
BEATRICE       SUNNY     74  38  27 CALM      30.07F
FALLS CITY     SUNNY     74  43  32 CALM      30.07F
NEBRASKA CITY  SUNNY     72  39  30 NE5       30.08S
PLATTSMOUTH    SUNNY     75  35  23 E6        30.07F
$$

NEZ044-045-051>053-067-052000-
OMAHA AREA

CITY           SKY/WX    TMP DP  RH WIND       PRES   REMARKS
OMAHA EPPLEY   MOSUNNY   73  38  27 VRB5      30.06F
BLAIR          SUNNY     73  36  26 SW7       30.06F
FREMONT        SUNNY     74  40  28 CALM      30.06F
MILLARD        SUNNY     73  37  27 CALM      30.06F
OFFUTT AFB     SUNNY     73  41  31 E6        30.05F
PLATTSMOUTH    SUNNY     75  35  23 E6        30.07F
WAHOO          FAIR      74  33  21 CALM      30.06F
$$



USA.gov is the U.S. government's official web portal to all federal, state and local government web resources and services.